Retour au catalogue

ATLAS 5 CENTAUR DEB

ActifHEO
NORAD 44674·DEBRIS·🇺🇸 United States

Lancé Oct 17, 2018 depuis Cape Canaveral Space Force Station

Loading…

Prochains Passages (prochaines 24 heures)

TLE

VieillissantSource: Space-Track

Époque: Aug 29, 2026, 14:35 UTC

1 44674U 18079AL  26241.60814329 -.00000112  00000-0  00000-0 0  9993
2 44674  13.1559  28.6768 4356901 350.7195   3.1785  1.93746291 50962

Suivez ATLAS 5 CENTAUR DEB en temps réel avec AllMySat

Download on the App Store